Simultaneous Nadir Overpasses (SNOs) Predictions

Prediction of SNOs between NPP and PACE Satellite Orbit:

Table of predicted SNOs for the next 14.0 days since TLE Epoch: 6/14/2024
Index Date (NPP) Time (NPP) Lat,Lon (NPP) SZA (NPP ) Date (PACE) Time (PACE) Lat,Lon (PACE) SZA (PACE ) Distance(km) Time Diff (sec)
1 06/15/2024 09:39:48 -80.02, 176.19 120.96 06/15/2024 09:40:39 -80.02, 176.18 120.99 0.31 51
2 06/15/2024 10:30:26 79.80, -14.40 58.64 06/15/2024 10:29:43 79.81, -14.50 58.67 2.13 43
3 06/17/2024 14:06:07 -79.95, 110.30 121.15 06/17/2024 14:06:42 -79.95, 110.21 121.15 1.92 35
4 06/17/2024 14:56:48 79.82, -81.17 58.62 06/17/2024 14:55:48 79.82, -81.06 58.63 2.41 60
5 06/19/2024 18:32:28 -79.94, 43.79 121.18 06/19/2024 18:32:46 -79.94, 43.80 121.19 0.29 18
6 06/19/2024 19:21:12 75.03,-123.86 52.02 06/19/2024 19:20:00 74.67,-126.23 51.90 79.43 72
7 06/21/2024 22:58:48 -79.90, -22.46 121.23 06/21/2024 22:58:49 -79.91, -22.48 121.23 0.35 1
8 06/24/2024 03:25:09 -79.90, -89.04 121.19 06/24/2024 03:24:52 -79.89, -88.91 121.20 2.96 17
9 06/26/2024 07:00:49 80.02, 35.93 59.11 06/26/2024 07:01:49 80.02, 35.85 59.09 1.84 60
10 06/26/2024 07:51:26 -79.79,-154.51 121.33 06/26/2024 07:50:52 -79.79,-154.64 121.29 2.82 34
11 06/28/2024 11:27:10 80.02, -30.72 59.23 06/28/2024 11:27:51 80.02, -30.59 59.19 2.67 41



Historial Predications of SNOs between NPP and PACE
